Location: Byhalia Creek
(34.8270°N, 89.8040°W)
Time: 20:54:53
(UTC+00:00)

Cosmos 1758 - Pass Details

Date: 22 April 2026
Orbit: 475 x 497 km, 82.5° (Epoch: 21 May)

Event Time Altitude Azimuth Distance (km) Brightness Sun altitude
Rises 10:20:23 0° 348° (NNW) 2,545 6.9 -12.1°
Reaches altitude 10° 10:22:31 10° 345° (NNW) 1,658 5.9 -11.7°
Maximum altitude 10:26:04 58° 266° (W) 560 3.0 -11.0°
Drops below altitude 10° 10:29:36 10° 186° (S) 1,637 5.5 -10.3°
Sets 10:31:41 0° 183° (S) 2,509 6.4 -9.9°
